This demonstration page uses our WeatherBlox Daily Observations layout. Learn more.

36.17497, -115.13722

Hourly Observations for June 15, 2015

Temp ( °F °C ) Dew Point ( °F °C ) Humidity (%) Winds ( mph kmh ) Pressure ( in mb ) Visibility ( mi km ) Precip ( " mm )
12:53 am 00:53 Clear 86 30 44 6.7 23 23 Calm 29.68 1005 10 16.0934 0 0
1:53 am 01:53 Clear 91 32.8 35 1.7 14 14 WSW 8 13 29.67 1005 10 16.0934 0 0
2:53 am 02:53 Clear 84 28.9 43 6.1 24 24 NW 6 9 29.69 1005 10 16.0934 0 0
3:53 am 03:53 Clear 82 27.8 44 6.7 26 26 NW 5 7 29.72 1006 10 16.0934 0 0
4:53 am 04:53 Clear 81 27.2 45 7.2 28 28 Calm 29.72 1007 10 16.0934 0 0
5:53 am 05:53 Sunny 80 26.7 44 6.7 28 28 NNW 3 6 29.74 1007 10 16.0934 0 0
6:53 am 06:53 Sunny 85 29.4 41 5 21 21 ENE 3 6 29.75 1008 10 16.0934 0 0
7:53 am 07:53 Sunny 89 31.7 37 2.8 16 16 ESE 6 9 29.77 1008 10 16.0934 0 0
8:53 am 08:53 Sunny 92 33.3 37 2.8 14 14 SE 8 13 29.77 1008 10 16.0934 0 0
9:53 am 09:53 Sunny 95 35 35 1.7 12 12 ESE 10 17 29.76 1008 10 16.0934 0 0
10:53 am 10:53 Sunny 99 37.2 33 0.6 10 10 SSE 13 20 29.75 1008 10 16.0934 0 0
11:53 am 11:53 Sunny 101 38.3 33 0.6 9 9 VRB 6 9 29.74 1007 10 16.0934 0 0
12:53 pm 12:53 Sunny 106 41.1 32 0 8 8 SE 12 19 29.72 1007 10 16.0934 0 0
1:53 pm 13:53 Sunny 106 41.1 29 -1.7 7 7 SSE 13 20 29.69 1005 10 16.0934 0 0
2:53 pm 14:53 Sunny 107 41.7 28 -2.2 6 6 SW 12 19 29.67 1005 10 16.0934 0 0
3:53 pm 15:53 Sunny 108 42.2 26 -3.3 6 6 W 18 30 29.65 1004 10 16.0934 0 0
4:53 pm 16:53 Sunny 106 41.1 23 -5 5 5 SW 16 26 29.65 1004 10 16.0934 0 0
5:53 pm 17:53 Sunny 106 41.1 21 -6.1 5 5 SW 16 26 29.65 1004 10 16.0934 0 0
6:53 pm 18:53 Sunny 104 40 21 -6.1 5 5 WSW 14 22 29.66 1004 10 16.0934 0 0
7:53 pm 19:53 Sunny 102 38.9 25 -3.9 6 6 WSW 10 17 29.66 1004 10 16.0934 0 0
8:53 pm 20:53 Clear 99 37.2 28 -2.2 8 8 WSW 6 9 29.67 1005 10 16.0934 0 0
9:53 pm 21:53 Clear 98 36.7 19 -7.2 6 6 W 9 15 29.68 1005 10 16.0934 0 0
10:53 pm 22:53 Clear 96 35.6 14 -10 5 5 WSW 10 17 29.7 1006 10 16.0934 0 0
11:53 pm 23:53 Clear 94 34.4 23 -5 8 8 SSW 12 19 29.72 1006 10 16.0934 0 0

Powered by AerisWeather